Miscellaneous Local Product
Issued by NWS North Platte, NE

Home | Current Version | Previous Version | Graphics & Text | Print | Product List | Glossary On
Versions: 1 2 3 4 5 6 7 8 9 10 11 12 13 14 15 16 17 18 19 20 21 22 23 24 25 26 27 28 29 30 31 32 33 34 35 36 37 38 39 40 41 42 43 44 45 46 47 48 49 50
000
AXUS43 KLBF 041110
MISLBF


WESTERN AND NORTH CENTRAL NEBRASKA HOURLY WEATHER ROUNDUP
NATIONAL WEATHER SERVICE NORTH PLATTE NE
500 AM CST WED MAR 04 2015

***STATIONS NOT REPORTING VARIABLES SUCH AS SKY/WEATHER OR
PRESSURE ARE PROVIDED BY THE NEBRASKA DEPARTMENT OF
ROADS...RAWS...AND APRS NETWORKS...AND ARE NOT UNDER
NATIONAL WEATHER SERVICE QUALITY CONTROL***

...OBSERVATIONS IN AND NEAR THE EASTERN PANHANDLE OF NEBRASKA...

CITY           SKY/WX    TMP DP  RH WIND       PRES   REMARKS
PINE RIDGE     CLEAR      2  -4  76 W5        30.11S WCI  -8
CHADRON        PTCLDY     0  -7  72 SW7       30.14S WCI -13
ALLIANCE       PTCLDY     3  -2  79 W9        30.08R WCI -12
SIDNEY         CLOUDY     9   2  73 NW9       30.08R WCI  -4
WHITECLAY        N/A      6  -4  65 W6          N/A  WCI  -5
CRESCENT LAKE    N/A      5  -2  73 NW10        N/A  WCI -10
LISCO            N/A     12   3  65 W8          N/A  WCI   1
BIG SPRINGS      N/A     15  11  82 CALM        N/A
LEWELLEN         N/A      9   0  67 W6          N/A  WCI  -1
$$

...OBSERVATIONS IN NORTH CENTRAL NEBRASKA...

CITY           SKY/WX    TMP DP  RH WIND       PRES   REMARKS
VALENTINE      CLEAR      6   0  76 W9        30.13R WCI  -8
THEDFORD       PTCLDY    11   7  85 CALM      30.13R
AINSWORTH      PTCLDY     8   1  71 W6        30.12R WCI  -2
O`NEILL        CLEAR      8   2  77 W6        30.16R WCI  -2
ORD            CLEAR     11   1  64 W6        30.17R WCI   1
BROKEN BOW     PTCLDY    10   6  84 NW5       30.15R WCI   2
BROWNLEE         N/A      5  -4  67 W9          N/A  WCI -10
SPRINGVIEW       N/A      0  -5  78 CALM        N/A
BREWSTER         N/A     19   7  58 W5          N/A  WCI  13
ROSE             N/A     17  11  77 SW3         N/A
NEWPORT          N/A     14  10  85 W7          N/A  WCI   4
SARGENT          N/A     14   5  67 CALM        N/A
COMSTOCK         N/A     15  11  83 W6          N/A  WCI   6
CHAMBERS         N/A      9  -6  49 CALM        N/A
EWING            N/A      7   1  76 W3          N/A
$$

...OBSERVATIONS IN SOUTHWEST NEBRASKA AND FAR NORTHEAST COLORADO...

CITY           SKY/WX    TMP DP  RH WIND       PRES   REMARKS
WRAY           LGT SNOW  17  15  90 N5        30.12R WCI  10
IMPERIAL         N/A     15   9  76 NW5       30.14R WCI   8
OGALLALA       MOCLDY    14   8  75 NW6       30.14R WCI   5
NORTH PLATTE   PTCLDY     7   4  87 CALM      30.16R
MCCOOK         LGT SNOW  18  13  80 N5        30.18R WCI  11
LEXINGTON      PTCLDY    13  10  85 NW3       30.18R
PAXTON           N/A     10   7  87 CALM        N/A
BRADY            N/A     10   6  84 CALM        N/A
GOTHENBURG       N/A     11   8  85 W3          N/A
CALLAWAY         N/A     10   7  87 NW3         N/A
$$

...NORTH PLATTE AREA...

CITY           SKY/WX    TMP DP  RH WIND       PRES   REMARKS
AIRPORT        PTCLDY     7   4  87 CALM      30.16R
DOWNTOWN         N/A     12   9  87 CALM        N/A
$$

...SOME WEATHER OBSERVATIONS FROM AROUND THE REGION...

CITY           SKY/WX    TMP DP  RH WIND       PRES   REMARKS
DENVER         LGT SNOW  11   8  88 N8        30.03R FOG     WCI  -1
LARAMIE        CLOUDY     1  -3  83 CALM      29.90R
CHEYENNE       PTCLDY     2  -4  76 W3        29.96R
SCOTTSBLUFF    MOCLDY     8   4  83 W7        30.11R WCI  -3
RAPID CITY     CLEAR      3  -5  69 N12       30.09R WCI -13
PIERRE         CLEAR      7  -2  66 NW17      30.14R WCI -12
WINNER         FAIR       5  -7  57 W10       30.14R WCI -10
SIOUX FALLS    PTCLDY     2  -3  80 SW5       30.15R WCI  -8
OMAHA          PTCLDY    15   7  70 N7        30.22R WCI   5
GRAND ISLAND   PTCLDY    11   7  84 W8        30.21R WCI  -1
KANSAS CITY    CLOUDY    19   6  57 N15       30.18R WCI   5
WICHITA        LGT SNOW  21  16  81 N18       30.15R WCI   6
HAYS           MOCLDY    19   7  58 NE16      30.19R WCI   5
LIBERAL        CLOUDY    21  16  79 NE14      30.09R WCI   8
GOODLAND       LGT SNOW  16  13  88 N10       30.11R FOG     WCI   4
$$



USA.gov is the U.S. government's official web portal to all federal, state and local government web resources and services.